Location: Tamazert
(32.6352°N, 5.2072°W)
Time: 08:57:21
(UTC+00:00)

Tiros 1 despin weight - Pass Details

Date: 06 October 2022
Orbit: 590 x 637 km, 48.2° (Epoch: 28 November)

Event Time Altitude Azimuth Distance (km) Brightness Sun altitude
Rises 22:43:50 0° 291° (WNW) 2,907 - -56.3°
Reaches altitude 10° 22:46:49 10° 271° (W) 2,004 - -56.7°
Maximum altitude 22:49:47 17° 231° (SW) 1,596 - -57.1°
Drops below altitude 10° 22:52:46 10° 190° (S) 2,009 - -57.5°
Sets 22:55:47 0° 170° (S) 2,916 - -57.9°
